[[{"header":{"parameterUnit":"m.s-1","parameterCategory":1,"la1":30.2991,"la2":30.254,"lo1":-89.0895,"lo2":-89.0444,"dy":0.0017,"dx":0.0017,"nx":28,"ny":28,"refTime":"2023-08-07T21:00:00:Z","depth":0,"parameterNumber":2,"parameterNumberName":"U-component_of_WINDS"},"data":[0,0,0,0,0,0,0,0,0,0,0,0,0,0,0,0,0,0,0,0,0,0,0,0,0,0,0,0,0,0,0,0,0,0,0,0,0,0,0,0,0,0,0,0,0,0,0,0,0,0,0,0,0,0,0,0,0,0,1.592,1.5921,0,1.6046,1.6047,1.6049,1.6104,1.6104,1.6103,1.6103,1.6234,1.6237,1.6241,0,0,0,0,0,0,0,0,0,0,0,0,0,1.573,1.5733,1.592,1.5921,1.5923,1.6045,1.6047,1.6049,1.6104,1.6104,1.6103,1.6103,1.6233,1.6237,1.6241,0,0,0,0,0,0,0,0,0,0,0,0,0,1.583,1.5734,1.5919,1.5965,1.597,1.6045,1.6047,1.6049,1.6104,1.6103,1.6103,1.6103,1.6231,1.6237,1.6242,1.6282,0,0,1.6259,1.6261,0,0,0,0,0,0,0,0,1.5824,1.5837,1.5957,1.5962,1.5968,1.6059,1.6028,1.6127,1.6104,1.6053,1.6103,1.6103,1.6176,1.6186,1.621,1.6288,1.6293,1.6259,1.6263,1.6265,1.6266,0,0,0,0,0,0,0,1.5817,1.5832,1.597,1.5958,1.5965,1.598,1.5994,1.6047,1.6115,1.6057,1.6062,1.6076,1.6179,1.6205,1.6214,1.6295,1.6259,1.6264,1.6267,1.6269,1.6415,1.6415,0,0,0,0,0,0,1.5802,1.5825,1.5966,1.5973,1.5894,1.5984,1.5999,1.603,1.6114,1.6127,1.6076,1.6078,1.6196,1.6207,1.6219,1.6272,1.6265,1.627,1.6273,1.6414,1.6415,1.6415,0,0,0,0,0,0,1.5798,1.5814,1.596,1.5901,1.592,1.5987,1.6021,1.6032,1.6058,1.6128,1.6141,1.609,1.6196,1.6211,1.6266,1.6277,1.6272,1.6277,1.6413,1.6414,1.6415,1.6378,0,0,0,0,0,0,1.5792,1.5812,1.5827,1.5901,1.5923,1.6004,1.6022,1.6035,1.6067,1.6071,1.6144,1.6156,1.6197,1.6258,1.6271,1.6285,1.6282,1.6413,1.6414,1.6415,1.6378,1.6377,1.6376,0,0,0,0,0,1.5785,1.5811,1.5827,1.5844,1.5943,1.6005,1.6018,1.6064,1.6068,1.6084,1.613,1.6154,1.6274,1.6263,1.6279,1.6294,1.6412,1.6414,1.6415,1.6379,1.6377,1.6376,0,0,0,0,0,0,1.5737,1.5821,1.584,1.5891,1.594,1.6014,1.6035,1.606,1.611,1.6112,1.6167,1.6183,1.6234,1.627,1.6256,1.6338,1.6345,1.635,1.6312,1.6312,1.6311,1.6301,1.6286,0,0,0,0,0,1.5732,1.5774,1.5847,1.5884,1.5908,1.5967,1.5996,1.6027,1.6081,1.6102,1.6152,1.6204,1.6254,1.6285,1.6334,1.6384,1.6402,1.6403,1.6402,1.6401,1.6404,1.6435,1.6437,1.642,1.642,1.642,0,0,1.5722,1.5774,1.5797,1.5876,1.5918,1.5962,1.5985,1.6029,1.6063,1.6109,1.6164,1.6203,1.6265,1.6318,1.6344,1.635,1.6413,1.6403,1.6401,1.6405,1.6437,1.6438,1.644,1.642,1.642,1.642,0,0,1.5727,1.577,1.5806,1.5849,1.5912,1.5952,1.5961,1.6032,1.6059,1.6116,1.6152,1.6194,1.6278,1.6321,1.6354,1.6379,1.6404,1.6393,1.6388,1.6418,1.6419,1.6421,1.6431,1.6433,1.6397,1.6396,1.6396,0,1.5706,1.5773,1.5822,1.5866,1.59,1.5945,1.5984,1.6023,1.6099,1.6122,1.6128,1.6236,1.628,1.6345,1.6352,1.6377,1.639,1.6385,1.6415,1.6417,1.6419,1.6429,1.6433,1.6395,1.6395,1.6395,1.6395,0,1.5746,1.5792,1.5815,1.5888,1.5925,1.5966,1.6022,1.6055,1.6083,1.6123,1.6182,1.6237,1.63,1.6318,1.6346,1.6388,1.6389,1.6404,1.6412,1.6418,1.6429,1.6433,1.6392,1.6393,1.6394,1.6394,0,0,1.5721,1.5823,1.583,1.5865,1.5941,1.5978,1.6022,1.6083,1.611,1.6163,1.6202,1.6274,1.6289,1.6326,1.636,1.6386,1.6404,1.6398,1.6401,1.6398,1.6455,1.6444,1.6447,1.6422,1.6423,1.6423,1.645,0,1.5736,1.5816,1.5863,1.5925,1.5969,1.6014,1.6053,1.6104,1.6143,1.6188,1.6232,1.6282,1.6297,1.632,1.6348,1.6396,1.6416,1.6395,1.646,1.6462,1.6442,1.6452,1.644,1.6462,1.6455,1.6455,1.6456,0,1.5763,1.5816,1.5881,1.5954,1.5975,1.6008,1.607,1.6111,1.6172,1.6199,1.6242,1.6276,1.6327,1.6332,1.6403,1.6387,1.6417,1.6445,1.6447,1.6455,1.6458,1.646,1.647,1.6473,1.6463,1.6462,1.6462,0,1.5739,1.5826,1.5877,1.5906,1.5992,1.6015,1.6052,1.6112,1.6146,1.6201,1.6224,1.6283,1.6316,1.6362,1.6412,1.6411,1.6479,1.6488,1.6504,1.6503,1.6515,1.6513,1.653,1.6535,1.6535,1.6535,1.6534,0,1.5751,1.579,1.5868,1.5899,1.5945,1.6,1.6044,1.6085,1.6138,1.6179,1.6222,1.626,1.6325,1.6372,1.6412,1.6466,1.648,1.6504,1.6514,1.65,1.6497,1.652,1.652,1.6536,1.6535,1.6535,1.6535,0,1.5731,1.5785,1.5844,1.5921,1.5942,1.5972,1.6039,1.6072,1.6115,1.6167,1.6182,1.6249,1.6307,1.6362,1.6439,1.6466,1.652,1.6533,1.6499,1.6505,1.6518,1.6516,1.6549,1.6557,1.6556,1.6556,1.6556,0,1.5734,1.5765,1.5846,1.5877,1.5913,1.5962,1.5998,1.6055,1.6091,1.6164,1.6188,1.6249,1.6301,1.6391,1.6447,1.6507,1.6522,1.653,1.6531,1.6517,1.6523,1.652,1.6524,1.6528,1.6528,1.6528,1.6528,0,1.5735,1.5761,1.5811,1.5871,1.5913,1.5963,1.6015,1.6038,1.6105,1.6144,1.6203,1.6243,1.6323,1.6383,1.645,1.649,1.652,1.6527,1.6534,1.6519,1.6499,1.6511,1.6496,1.6526,1.6526,1.6526,1.6526,1.6526,1.5727,1.5757,1.582,1.5875,1.5921,1.5969,1.6004,1.6052,1.6103,1.6171,1.6202,1.6263,1.6325,1.6418,1.6458,1.6507,1.6514,1.6524,1.6526,1.6528,1.6525,1.6491,1.6519,1.652,1.652,1.652,1.652,0,1.573,1.5773,1.5824,1.5895,1.5939,1.5965,1.6025,1.606,1.6112,1.6168,1.6218,1.6288,1.6348,1.641,1.6473,1.6501,1.6517,1.6516,1.6514,1.6523,1.6515,1.6503,1.6502,1.6502,1.6502,1.6502,1.6502,1.6502,1.5737,1.579,1.5824,1.5902,1.5945,1.6004,1.6036,1.6082,1.6127,1.6203,1.6252,1.6293,1.6352,1.642,1.6477,1.6494,1.6516,1.6511,1.6531,1.6522,1.6523,1.6524,1.6513,1.6515,1.6515,1.6536,1.6536,1.6536]},{"header":{"parameterUnit":"m.s-1","parameterCategory":1,"la1":30.2991,"la2":30.254,"lo1":-89.0895,"lo2":-89.0444,"dy":0.0017,"dx":0.0017,"nx":28,"ny":28,"refTime":"2023-08-07T21:00:00:Z","depth":0,"parameterNumber":3,"parameterNumberName":"V-component_of_WINDS"},"data":[0,0,0,0,0,0,0,0,0,0,0,0,0,0,0,0,0,0,0,0,0,0,0,0,0,0,0,0,0,0,0,0,0,0,0,0,0,0,0,0,0,0,0,0,0,0,0,0,0,0,0,0,0,0,0,0,0,0,5.7917,5.792,0,5.8132,5.8134,5.8137,5.8163,5.8161,5.8159,5.8157,5.8367,5.8374,5.8382,0,0,0,0,0,0,0,0,0,0,0,0,0,5.7521,5.7529,5.7917,5.792,5.7923,5.8132,5.8134,5.8137,5.8163,5.8161,5.8158,5.8156,5.8364,5.8373,5.8382,0,0,0,0,0,0,0,0,0,0,0,0,0,5.771,5.7531,5.7917,5.7961,5.7967,5.8131,5.8135,5.8138,5.8164,5.8161,5.8158,5.8155,5.8361,5.8372,5.8384,5.8515,0,0,5.8418,5.8423,0,0,0,0,0,0,0,0,5.7699,5.7725,5.7952,5.7958,5.7966,5.8118,5.8072,5.8264,5.8165,5.8089,5.8157,5.8153,5.8286,5.8303,5.835,5.8525,5.8534,5.8419,5.8426,5.8431,5.8434,0,0,0,0,0,0,0,5.7686,5.7715,5.8002,5.7955,5.7964,5.7967,5.7991,5.8108,5.8202,5.8095,5.8098,5.8123,5.8289,5.8339,5.8355,5.8537,5.8419,5.8429,5.8436,5.844,5.883,5.8833,0,0,0,0,0,0,5.7666,5.7704,5.7995,5.8008,5.7822,5.7977,5.8003,5.8072,5.8201,5.8218,5.8126,5.8124,5.8321,5.8342,5.8362,5.8525,5.8431,5.8441,5.8448,5.8826,5.8831,5.8835,0,0,0,0,0,0,5.7658,5.7692,5.7986,5.7857,5.7895,5.7987,5.8064,5.8078,5.8128,5.8224,5.824,5.816,5.832,5.8347,5.8478,5.8533,5.8446,5.8456,5.8822,5.8828,5.8833,5.8851,0,0,0,0,0,0,5.7646,5.7689,5.7742,5.7858,5.7902,5.8101,5.8068,5.8084,5.8148,5.8148,5.8261,5.8276,5.8319,5.8461,5.8489,5.8547,5.8465,5.8818,5.8825,5.8831,5.8846,5.8857,5.8866,0,0,0,0,0,5.7632,5.7736,5.7744,5.7779,5.7971,5.8104,5.8128,5.8179,5.8153,5.8205,5.8267,5.8272,5.8522,5.8474,5.8506,5.8568,5.8814,5.8823,5.8831,5.8842,5.8855,5.8865,0,0,0,0,0,0,5.762,5.7752,5.7763,5.7908,5.7995,5.8108,5.8176,5.8191,5.8284,5.8279,5.8335,5.836,5.8489,5.8541,5.8485,5.8702,5.8665,5.868,5.8663,5.8676,5.8686,5.867,5.8475,0,0,0,0,0,5.7635,5.7735,5.7844,5.7961,5.8005,5.8083,5.8143,5.8175,5.8265,5.8301,5.8372,5.8458,5.8556,5.8618,5.8714,5.8854,5.8878,5.8912,5.8922,5.8929,5.8941,5.9019,5.9036,5.8861,5.8861,5.8861,0,0,5.7665,5.775,5.7809,5.7961,5.8032,5.8132,5.8114,5.822,5.8294,5.8316,5.8446,5.8501,5.8599,5.8736,5.8799,5.8783,5.8995,5.894,5.8945,5.8953,5.903,5.9046,5.9061,5.8867,5.8866,5.8865,0,0,5.7772,5.7846,5.7953,5.8026,5.8135,5.8187,5.8212,5.8324,5.8362,5.8494,5.8513,5.86,5.8767,5.8837,5.8894,5.9029,5.9037,5.9058,5.9109,5.9184,5.9198,5.9211,5.9259,5.9275,5.907,5.907,5.907,0,5.7794,5.795,5.8005,5.8113,5.8178,5.8207,5.8314,5.838,5.8513,5.8557,5.8538,5.875,5.8818,5.8971,5.9005,5.905,5.9079,5.9046,5.9192,5.9205,5.9218,5.9264,5.9282,5.9072,5.9072,5.9071,5.9071,0,5.7972,5.8079,5.8152,5.8285,5.8358,5.8464,5.8534,5.8601,5.8627,5.8679,5.8812,5.8895,5.9008,5.9047,5.9071,5.9204,5.9191,5.9181,5.9146,5.9235,5.928,5.9298,5.9074,5.9074,5.9073,5.9073,0,0,5.8076,5.824,5.8266,5.8327,5.845,5.8532,5.8639,5.8753,5.881,5.89,5.899,5.9132,5.9125,5.919,5.9222,5.9288,5.939,5.9271,5.9274,5.929,5.9541,5.9547,5.9567,5.9396,5.94,5.9403,5.9533,0,5.8198,5.8393,5.8447,5.8611,5.871,5.8739,5.8832,5.8916,5.8968,5.9057,5.9113,5.9213,5.9196,5.9236,5.9303,5.9363,5.9441,5.9355,5.9478,5.9482,5.9453,5.9591,5.9598,5.9717,5.9551,5.9554,5.9556,0,5.8365,5.8464,5.8639,5.8751,5.8794,5.8877,5.8986,5.9072,5.9167,5.92,5.9274,5.9301,5.9411,5.937,5.9521,5.9461,5.9515,5.9552,5.9558,5.9572,5.9524,5.9607,5.9756,5.9773,5.9584,5.9581,5.9579,0,5.8424,5.8599,5.8728,5.8779,5.8912,5.897,5.9027,5.912,5.9185,5.9279,5.9322,5.9426,5.9483,5.9562,5.9615,5.9581,5.9762,5.9726,5.9791,5.979,5.9828,5.9825,5.9987,5.9862,5.9862,5.9862,5.9861,0,5.8553,5.8659,5.8756,5.8835,5.8954,5.9013,5.9128,5.9186,5.9269,5.9357,5.9387,5.9469,5.9534,5.9624,5.9666,5.9785,5.981,5.9838,5.9848,5.9836,5.9832,5.9872,5.9865,5.9867,5.9865,5.9864,5.9864,0,5.8639,5.8708,5.885,5.8966,5.8997,5.908,5.9178,5.9254,5.9307,5.9419,5.9448,5.9531,5.9639,5.97,5.9834,5.9862,5.9995,6.0,5.9964,5.9968,6.0031,6.0024,6.0224,6.0253,6.0108,6.0109,6.011,0,5.8717,5.88,5.8926,5.899,5.9049,5.915,5.9218,5.9279,5.9348,5.9464,5.9526,5.9636,5.9728,5.9897,5.9968,6.007,6.0079,6.0141,6.0094,6.0079,6.008,6.0075,6.0083,6.0149,6.0151,6.0152,6.0153,0,5.8849,5.888,5.8979,5.9091,5.9172,5.9261,5.935,5.9399,5.9474,5.955,5.9663,5.9734,5.9873,5.9981,6.009,6.0146,6.0162,6.0167,6.0188,6.0176,6.0152,6.0167,5.9986,6.0162,6.0161,6.016,6.016,6.016,5.8933,5.9009,5.911,5.922,5.9294,5.9376,5.9455,5.9519,5.9615,5.9736,5.9765,5.9883,5.9976,6.0125,6.0183,6.0275,6.0263,6.0293,6.03,6.0307,6.0309,6.0138,6.0294,6.0294,6.0294,6.0294,6.0294,0,5.9067,5.9134,5.9235,5.936,5.9446,5.9457,5.9556,5.9626,5.9731,5.9817,5.9908,6.0037,6.0143,6.0222,6.033,6.0388,6.0397,6.0414,6.041,6.0423,6.0313,6.0285,6.0404,6.0404,6.0404,6.0404,6.0404,6.0404,5.9147,5.9276,5.9318,5.9484,5.9549,5.9669,5.9724,5.98,5.987,6.0014,6.0104,6.0156,6.024,6.0354,6.0451,6.0471,6.0509,6.0525,6.0546,6.0442,6.043,6.0419,6.0393,6.0533,6.0533,6.0648,6.0649,6.065]}]]